[[{"header":{"parameterUnit":"m.s-1","parameterCategory":1,"la1":30.2991,"la2":30.254,"lo1":-89.0895,"lo2":-89.0444,"dy":0.0017,"dx":0.0017,"nx":28,"ny":28,"refTime":"2024-02-24T03:00:00:Z","depth":0,"parameterNumber":2,"parameterNumberName":"U-component_of_WINDS"},"data":[0,0,0,0,0,0,0,0,0,0,0,0,0,0,0,0,0,0,0,0,0,0,0,0,0,0,0,0,0,0,0,0,0,0,0,0,0,0,0,0,0,0,0,0,0,0,0,0,0,0,0,0,0,0,0,0,0,0,2.4212,2.4213,0,2.4248,2.4248,2.4249,2.4222,2.4221,2.422,2.4219,2.4254,2.4256,2.4258,0,0,0,0,0,0,0,0,0,0,0,0,0,2.412,2.4122,2.4212,2.4213,2.4213,2.4248,2.4248,2.4249,2.4222,2.4221,2.4219,2.4218,2.4253,2.4256,2.4258,0,0,0,0,0,0,0,0,0,0,0,0,0,2.4159,2.4123,2.4212,2.4204,2.4204,2.4248,2.4248,2.4249,2.4222,2.4221,2.4219,2.4217,2.4253,2.4256,2.4259,2.4312,0,0,2.4268,2.4269,0,0,0,0,0,0,0,0,2.4157,2.4162,2.4205,2.4205,2.4204,2.4229,2.4229,2.427,2.4223,2.4215,2.4218,2.4216,2.4247,2.425,2.4261,2.4314,2.4315,2.4268,2.427,2.4271,2.4272,0,0,0,0,0,0,0,2.4154,2.416,2.4226,2.4205,2.4205,2.4198,2.4202,2.4237,2.424,2.4216,2.4214,2.4219,2.4246,2.4258,2.4261,2.4316,2.4268,2.4271,2.4273,2.4274,2.4415,2.4417,0,0,0,0,0,0,2.4152,2.4158,2.4225,2.4227,2.4176,2.4201,2.4205,2.4223,2.424,2.4241,2.422,2.4217,2.4254,2.4258,2.4263,2.4327,2.4271,2.4274,2.4276,2.4413,2.4415,2.4417,0,0,0,0,0,0,2.415,2.4158,2.4224,2.4192,2.42,2.4205,2.4225,2.4224,2.4236,2.4243,2.4244,2.4231,2.4252,2.4258,2.43,2.4328,2.4275,2.4278,2.4411,2.4414,2.4416,2.4455,0,0,0,0,0,0,2.4148,2.4158,2.4178,2.4193,2.4202,2.4261,2.4226,2.4226,2.4241,2.4238,2.4254,2.4255,2.4251,2.4296,2.4303,2.4331,2.4281,2.4408,2.4412,2.4415,2.4452,2.4459,2.4466,0,0,0,0,0,2.4145,2.4188,2.418,2.4188,2.4228,2.4263,2.4268,2.4263,2.4243,2.4264,2.4269,2.4254,2.4323,2.43,2.4308,2.4337,2.4406,2.4411,2.4415,2.4448,2.4458,2.4465,0,0,0,0,0,0,2.4176,2.4189,2.4181,2.423,2.4245,2.4258,2.4284,2.4273,2.4295,2.4291,2.4284,2.4288,2.4332,2.4339,2.4313,2.439,2.4362,2.4368,2.4384,2.4393,2.44,2.4397,2.4283,0,0,0,0,0,2.4188,2.4216,2.4226,2.4269,2.4277,2.4279,2.4294,2.429,2.4305,2.4312,2.4319,2.4335,2.436,2.4377,2.4401,2.4452,2.4455,2.4476,2.4483,2.4489,2.4494,2.4522,2.4532,2.4432,2.4432,2.4431,0,0,2.4215,2.4226,2.4243,2.4275,2.4287,2.4315,2.4285,2.4316,2.4337,2.4316,2.4356,2.4363,2.438,2.4427,2.4448,2.4434,2.4523,2.4495,2.4499,2.4501,2.4528,2.4537,2.4546,2.4435,2.4434,2.4434,0,0,2.4277,2.4288,2.4325,2.4337,2.4355,2.4356,2.4365,2.438,2.4383,2.4424,2.4409,2.4433,2.4477,2.449,2.4502,2.457,2.4557,2.4578,2.4614,2.4642,2.465,2.4656,2.4681,2.4689,2.4583,2.4583,2.4583,0,2.4308,2.435,2.4345,2.4378,2.4392,2.4375,2.4412,2.4424,2.4449,2.4459,2.4443,2.4498,2.4508,2.4558,2.4574,2.4585,2.4594,2.4576,2.4649,2.4656,2.4662,2.4685,2.4694,2.4585,2.4585,2.4585,2.4585,0,2.4387,2.4416,2.4444,2.4468,2.4486,2.4521,2.4521,2.4539,2.4533,2.4536,2.4577,2.4589,2.4615,2.4626,2.462,2.4675,2.4666,2.465,2.4621,2.4674,2.4696,2.4705,2.4589,2.4588,2.4587,2.4587,0,0,2.447,2.4491,2.4502,2.4513,2.4531,2.4554,2.4588,2.4613,2.4629,2.4647,2.4675,2.4712,2.4697,2.4711,2.4707,2.4731,2.4784,2.4711,2.4712,2.4725,2.4845,2.4858,2.4868,2.4776,2.4777,2.4779,2.4844,0,2.4533,2.4592,2.4589,2.4645,2.4672,2.4656,2.4686,2.47,2.4704,2.4727,2.4731,2.4758,2.4736,2.4745,2.4768,2.4773,2.4808,2.4768,2.4802,2.4803,2.4798,2.4879,2.4892,2.4953,2.4852,2.4854,2.4855,0,2.4615,2.4636,2.4694,2.4709,2.4721,2.4747,2.477,2.4793,2.4809,2.481,2.4826,2.4818,2.4852,2.4822,2.4869,2.4842,2.4855,2.486,2.4862,2.4865,2.4832,2.4884,2.4973,2.4982,2.4868,2.4867,2.4866,0,2.467,2.4713,2.4753,2.4763,2.4781,2.48,2.4809,2.4823,2.4839,2.4859,2.4869,2.4893,2.4906,2.4925,2.4923,2.4902,2.4971,2.4941,2.4972,2.4972,2.4987,2.4986,2.5079,2.4996,2.4996,2.4996,2.4996,0,2.4741,2.4778,2.4778,2.4803,2.4843,2.4839,2.4879,2.4885,2.4898,2.4924,2.4912,2.4936,2.4932,2.4957,2.4956,2.4994,2.5,2.5002,2.5001,2.5003,2.5003,2.5012,2.5007,2.4998,2.4998,2.4997,2.4997,0,2.4809,2.4811,2.4854,2.4868,2.4872,2.4901,2.4913,2.4937,2.4939,2.4972,2.4979,2.4984,2.5012,2.5012,2.5044,2.5043,2.5091,2.5085,2.5086,2.5084,2.5116,2.5113,2.5217,2.5231,2.5139,2.514,2.5141,0,2.4854,2.4882,2.4899,2.4916,2.4925,2.4952,2.4968,2.4965,2.4982,2.5003,2.5024,2.5051,2.5072,2.5118,2.5124,2.5148,2.5143,2.5178,2.5147,2.5148,2.5143,2.5142,2.5144,2.5184,2.5185,2.5186,2.5187,0,2.4935,2.4934,2.4958,2.4983,2.5002,2.5021,2.5038,2.5052,2.5051,2.5071,2.51,2.5117,2.5149,2.5176,2.52,2.5208,2.5197,2.5196,2.5205,2.5207,2.5206,2.5207,2.5102,2.5194,2.5193,2.5193,2.5192,2.5192,2.4993,2.5017,2.5033,2.5059,2.5072,2.5089,2.5112,2.5118,2.5142,2.5168,2.5165,2.5197,2.5212,2.5243,2.5254,2.5278,2.5266,2.5278,2.5282,2.5285,2.5288,2.5202,2.5283,2.5282,2.5282,2.5282,2.5282,0,2.5073,2.5082,2.5107,2.5132,2.5153,2.5141,2.516,2.5178,2.5207,2.5222,2.5244,2.5277,2.5303,2.5311,2.5336,2.5354,2.535,2.5361,2.536,2.5362,2.5298,2.5288,2.5364,2.5364,2.5364,2.5364,2.5364,2.5364,2.5117,2.5156,2.5158,2.5204,2.5213,2.5245,2.5256,2.5271,2.5284,2.5321,2.5343,2.5348,2.5361,2.5387,2.541,2.5412,2.5422,2.5435,2.5434,2.5374,2.5366,2.5358,2.5349,2.5437,2.5437,2.5496,2.5497,2.5497]},{"header":{"parameterUnit":"m.s-1","parameterCategory":1,"la1":30.2991,"la2":30.254,"lo1":-89.0895,"lo2":-89.0444,"dy":0.0017,"dx":0.0017,"nx":28,"ny":28,"refTime":"2024-02-24T03:00:00:Z","depth":0,"parameterNumber":3,"parameterNumberName":"V-component_of_WINDS"},"data":[0,0,0,0,0,0,0,0,0,0,0,0,0,0,0,0,0,0,0,0,0,0,0,0,0,0,0,0,0,0,0,0,0,0,0,0,0,0,0,0,0,0,0,0,0,0,0,0,0,0,0,0,0,0,0,0,0,0,-0.7706,-0.7706,0,-0.7765,-0.7766,-0.7766,-0.7774,-0.7773,-0.7772,-0.7772,-0.7834,-0.7836,-0.7838,0,0,0,0,0,0,0,0,0,0,0,0,0,-0.76,-0.7602,-0.7706,-0.7706,-0.7707,-0.7765,-0.7766,-0.7767,-0.7774,-0.7773,-0.7772,-0.7772,-0.7833,-0.7836,-0.7838,0,0,0,0,0,0,0,0,0,0,0,0,0,-0.7651,-0.7603,-0.7705,-0.7718,-0.7719,-0.7765,-0.7766,-0.7767,-0.7774,-0.7773,-0.7772,-0.7771,-0.7832,-0.7836,-0.7839,-0.7877,0,0,-0.7849,-0.785,0,0,0,0,0,0,0,0,-0.7649,-0.7655,-0.7715,-0.7717,-0.7719,-0.7761,-0.7751,-0.7804,-0.7774,-0.7753,-0.7772,-0.7771,-0.781,-0.7816,-0.7829,-0.788,-0.7882,-0.7849,-0.7851,-0.7853,-0.7854,0,0,0,0,0,0,0,-0.7645,-0.7653,-0.7729,-0.7716,-0.7718,-0.7721,-0.7727,-0.7761,-0.7786,-0.7755,-0.7756,-0.7762,-0.7811,-0.7825,-0.783,-0.7883,-0.7849,-0.7852,-0.7854,-0.7855,-0.797,-0.7971,0,0,0,0,0,0,-0.7639,-0.765,-0.7727,-0.7731,-0.7681,-0.7723,-0.773,-0.7748,-0.7786,-0.7791,-0.7763,-0.7763,-0.782,-0.7826,-0.7832,-0.788,-0.7853,-0.7856,-0.7858,-0.7969,-0.797,-0.7972,0,0,0,0,0,0,-0.7637,-0.7646,-0.7725,-0.7691,-0.7701,-0.7726,-0.7746,-0.775,-0.7764,-0.7792,-0.7796,-0.7773,-0.782,-0.7828,-0.7866,-0.7882,-0.7857,-0.786,-0.7968,-0.797,-0.7971,-0.7976,0,0,0,0,0,0,-0.7634,-0.7645,-0.7659,-0.7691,-0.7703,-0.7757,-0.7747,-0.7752,-0.777,-0.7769,-0.7802,-0.7807,-0.782,-0.7861,-0.7869,-0.7887,-0.7863,-0.7966,-0.7969,-0.797,-0.7974,-0.7977,-0.798,0,0,0,0,0,-0.763,-0.7658,-0.766,-0.7669,-0.7721,-0.7758,-0.7765,-0.7778,-0.7771,-0.7786,-0.7804,-0.7806,-0.7879,-0.7865,-0.7874,-0.7893,-0.7966,-0.7968,-0.797,-0.7973,-0.7977,-0.798,0,0,0,0,0,0,-0.7628,-0.7662,-0.7665,-0.7704,-0.7728,-0.7759,-0.7778,-0.7782,-0.7809,-0.7807,-0.7824,-0.7831,-0.7869,-0.7885,-0.7868,-0.7932,-0.7922,-0.7926,-0.7921,-0.7924,-0.7927,-0.7923,-0.7866,0,0,0,0,0,-0.7632,-0.7658,-0.7687,-0.7719,-0.7731,-0.7752,-0.7769,-0.7778,-0.7803,-0.7814,-0.7834,-0.786,-0.7889,-0.7907,-0.7935,-0.7976,-0.7984,-0.7994,-0.7997,-0.7999,-0.8003,-0.8027,-0.8032,-0.7979,-0.7979,-0.7979,0,0,-0.764,-0.7663,-0.7678,-0.7719,-0.7739,-0.7767,-0.7761,-0.779,-0.7812,-0.7818,-0.7856,-0.7872,-0.7901,-0.7942,-0.796,-0.7956,-0.8019,-0.8002,-0.8004,-0.8006,-0.803,-0.8035,-0.8039,-0.7981,-0.7981,-0.7981,0,0,-0.7671,-0.769,-0.7719,-0.7739,-0.7768,-0.7783,-0.779,-0.782,-0.7831,-0.7869,-0.7875,-0.7901,-0.795,-0.7971,-0.7988,-0.8028,-0.8031,-0.8036,-0.8051,-0.8075,-0.8079,-0.8083,-0.8098,-0.8103,-0.804,-0.804,-0.804,0,-0.7678,-0.7719,-0.7733,-0.7763,-0.7781,-0.7788,-0.7819,-0.7837,-0.7875,-0.7888,-0.7882,-0.7945,-0.7965,-0.8011,-0.802,-0.8034,-0.8043,-0.8033,-0.8077,-0.8081,-0.8085,-0.8099,-0.8105,-0.8041,-0.804,-0.804,-0.804,0,-0.7727,-0.7756,-0.7776,-0.7812,-0.7833,-0.7863,-0.7882,-0.7901,-0.7908,-0.7923,-0.7963,-0.7987,-0.8021,-0.8032,-0.804,-0.808,-0.8076,-0.8074,-0.8064,-0.809,-0.8104,-0.811,-0.8041,-0.8041,-0.8041,-0.8041,0,0,-0.7757,-0.7801,-0.7808,-0.7825,-0.7859,-0.7882,-0.7913,-0.7945,-0.7962,-0.7988,-0.8015,-0.8057,-0.8055,-0.8075,-0.8084,-0.8105,-0.8136,-0.81,-0.8101,-0.8107,-0.8183,-0.8185,-0.8191,-0.8138,-0.8139,-0.814,-0.8181,0,-0.7792,-0.7846,-0.786,-0.7906,-0.7934,-0.7942,-0.7969,-0.7993,-0.8008,-0.8034,-0.8051,-0.8081,-0.8076,-0.8088,-0.8109,-0.8128,-0.8151,-0.8125,-0.8164,-0.8165,-0.8157,-0.8198,-0.82,-0.8237,-0.8186,-0.8187,-0.8188,0,-0.7839,-0.7866,-0.7915,-0.7947,-0.7959,-0.7982,-0.8014,-0.8039,-0.8067,-0.8077,-0.8099,-0.8107,-0.814,-0.8129,-0.8175,-0.8157,-0.8174,-0.8186,-0.8188,-0.8192,-0.8178,-0.8204,-0.8249,-0.8255,-0.8196,-0.8195,-0.8195,0,-0.7857,-0.7906,-0.7942,-0.7956,-0.7993,-0.801,-0.8026,-0.8053,-0.8073,-0.8101,-0.8113,-0.8145,-0.8162,-0.8187,-0.8204,-0.8194,-0.825,-0.8239,-0.826,-0.8259,-0.8271,-0.827,-0.832,-0.8281,-0.8281,-0.8281,-0.8281,0,-0.7895,-0.7925,-0.7951,-0.7973,-0.8007,-0.8023,-0.8057,-0.8073,-0.8098,-0.8124,-0.8133,-0.8157,-0.8178,-0.8206,-0.8219,-0.8257,-0.8264,-0.8274,-0.8277,-0.8273,-0.8272,-0.8285,-0.8283,-0.8283,-0.8282,-0.8282,-0.8282,0,-0.7921,-0.7939,-0.7979,-0.8011,-0.802,-0.8044,-0.8071,-0.8094,-0.811,-0.8143,-0.8152,-0.8177,-0.821,-0.8229,-0.8271,-0.828,-0.8322,-0.8324,-0.8312,-0.8314,-0.8334,-0.8332,-0.8394,-0.8403,-0.8357,-0.8358,-0.8358,0,-0.7944,-0.7967,-0.8002,-0.802,-0.8036,-0.8065,-0.8085,-0.8102,-0.8122,-0.8157,-0.8175,-0.8209,-0.8237,-0.829,-0.8312,-0.8345,-0.8348,-0.8367,-0.8353,-0.8349,-0.8349,-0.8348,-0.8351,-0.837,-0.837,-0.8371,-0.8371,0,-0.7983,-0.7991,-0.8019,-0.805,-0.8073,-0.8099,-0.8124,-0.8139,-0.816,-0.8183,-0.8217,-0.8239,-0.8282,-0.8316,-0.835,-0.8368,-0.8374,-0.8375,-0.8382,-0.8379,-0.8371,-0.8377,-0.832,-0.8374,-0.8374,-0.8373,-0.8373,-0.8373,-0.8008,-0.803,-0.8058,-0.8089,-0.811,-0.8134,-0.8157,-0.8175,-0.8204,-0.824,-0.8249,-0.8285,-0.8314,-0.836,-0.8379,-0.8408,-0.8405,-0.8414,-0.8417,-0.8419,-0.842,-0.8366,-0.8415,-0.8415,-0.8414,-0.8414,-0.8414,0,-0.8049,-0.8067,-0.8095,-0.8131,-0.8156,-0.8158,-0.8187,-0.8208,-0.8239,-0.8265,-0.8293,-0.8333,-0.8366,-0.8391,-0.8425,-0.8444,-0.8447,-0.8452,-0.8451,-0.8456,-0.8421,-0.8412,-0.8449,-0.8449,-0.8449,-0.8449,-0.8449,-0.8449,-0.8073,-0.8109,-0.8121,-0.8169,-0.8187,-0.8222,-0.8239,-0.8261,-0.8282,-0.8326,-0.8354,-0.837,-0.8396,-0.8432,-0.8463,-0.847,-0.8483,-0.8487,-0.8495,-0.8462,-0.8458,-0.8454,-0.8446,-0.849,-0.849,-0.8527,-0.8528,-0.8528]}]]